When you browse on this site, cookies collect data to enhance your experience and personalize the content and advertising you see.
Visit our Privacy Policy to learn more. By continuing to use the site, you agree to this use of cookies and data.
  • In Spain
  • List of Countries
  • For 7 days
  • Water Temperature
  • Weather Map
  • Weather Widgets
  • user-avatar
    Login

    Hourly Weather Ashtarak

    Today, 26 May, Tuesday

    Time Temperature Precipitation Wind Pressure Humidity
    00:00 +11°C° 0 mm 1 mps 659 mmHg 69%
    01:00 +10°C° 0 mm 1 mps 659 mmHg 70%
    02:00 +10°C° 0 mm 1 mps 659 mmHg 71%
    03:00 +9°C° 0 mm 1 mps 659 mmHg 72%
    04:00 +10°C° 0 mm 1 mps 659 mmHg 71%
    05:00 +11°C° 0 mm 1 mps 659 mmHg 70%
    06:00 +12°C° 0 mm 1 mps 660 mmHg 69%
    07:00 +13°C° 0 mm 1 mps 660 mmHg 64%
    08:00 +15°C° 0 mm 1 mps 661 mmHg 59%
    09:00 +16°C° 0 mm 2 mps 661 mmHg 54%
    10:00 +18°C° 0 mm 2 mps 661 mmHg 50%
    11:00 +19°C° 0 mm 2 mps 661 mmHg 47%
    12:00 +20°C° 0 mm 2 mps 661 mmHg 43%
    13:00 +21°C° 0 mm 2 mps 661 mmHg 42%
    14:00 +23°C° 0 mm 1 mps 661 mmHg 40%
    15:00 +23°C° 0 mm 1 mps 661 mmHg 38%
    16:00 +23°C° 0 mm 1 mps 661 mmHg 41%
    17:00 +23°C° 0 mm 1 mps 661 mmHg 45%
    18:00 +21°C° 0 mm 0 mps 661 mmHg 48%
    19:00 +21°C° 0 mm 1 mps 661 mmHg 49%
    20:00 +18°C° 0 mm 1 mps 660 mmHg 51%
    21:00 +15°C° 0 mm 1 mps 660 mmHg 52%
    22:00 +15°C° 0 mm 1 mps 660 mmHg 52%
    23:00 +15°C° 0 mm 1 mps 661 mmHg 53%

    Tomorrow, 27 May, Wednesday

    Time Temperature Precipitation Wind Pressure Humidity
    00:00 +15°C° 0 mm 1 mps 661 mmHg 53%
    01:00 +15°C° 0 mm 1 mps 661 mmHg 56%
    02:00 +14°C° 0 mm 1 mps 660 mmHg 59%
    03:00 +14°C° 0 mm 1 mps 660 mmHg 62%
    04:00 +15°C° 0 mm 1 mps 661 mmHg 62%
    05:00 +16°C° 0 mm 1 mps 661 mmHg 63%
    06:00 +16°C° 0 mm 1 mps 662 mmHg 64%
    07:00 +19°C° 0 mm 1 mps 662 mmHg 58%
    08:00 +21°C° 0 mm 1 mps 662 mmHg 52%
    09:00 +23°C° 0 mm 1 mps 663 mmHg 46%
    10:00 +24°C° 0 mm 2 mps 663 mmHg 43%
    11:00 +25°C° 0 mm 2 mps 663 mmHg 40%
    12:00 +26°C° 0 mm 2 mps 663 mmHg 38%
    13:00 +26°C° 0 mm 2 mps 662 mmHg 36%
    14:00 +27°C° 0 mm 2 mps 662 mmHg 35%
    15:00 +27°C° 0 mm 2 mps 662 mmHg 34%
    16:00 +27°C° 0 mm 1 mps 662 mmHg 38%
    17:00 +26°C° 0 mm 1 mps 662 mmHg 43%
    18:00 +24°C° 0 mm 0 mps 662 mmHg 47%
    19:00 +24°C° 0 mm 1 mps 661 mmHg 49%
    20:00 +21°C° 0 mm 2 mps 661 mmHg 51%
    21:00 +19°C° 0 mm 2 mps 661 mmHg 52%
    22:00 +18°C° 0 mm 2 mps 661 mmHg 52%
    23:00 +18°C° 0 mm 2 mps 661 mmHg 51%

    Day after tomorrow, 28 May, Thursday

    Time Temperature Precipitation Wind Pressure Humidity
    00:00 +19°C° 0 mm 1 mps 660 mmHg 50%
    01:00 +18°C° 0 mm 1 mps 660 mmHg 51%
    02:00 +18°C° 0 mm 1 mps 660 mmHg 51%
    03:00 +18°C° 0 mm 1 mps 660 mmHg 51%
    04:00 +18°C° 0 mm 1 mps 660 mmHg 53%
    05:00 +19°C° 0 mm 1 mps 660 mmHg 54%
    06:00 +20°C° 0 mm 1 mps 661 mmHg 56%
    07:00 +22°C° 0 mm 1 mps 661 mmHg 51%
    08:00 +23°C° 0 mm 1 mps 661 mmHg 45%
    09:00 +25°C° 0 mm 1 mps 661 mmHg 40%
    10:00 +26°C° 0 mm 2 mps 661 mmHg 38%
    11:00 +27°C° 0 mm 2 mps 661 mmHg 35%
    12:00 +29°C° 0 mm 2 mps 661 mmHg 33%
    13:00 +29°C° 0 mm 2 mps 661 mmHg 31%
    14:00 +29°C° 0 mm 2 mps 660 mmHg 29%
    15:00 +30°C° 0 mm 2 mps 660 mmHg 27%
    16:00 +27°C° 0.2 mm 2 mps 659 mmHg 39%
    17:00 +24°C° 0.2 mm 3 mps 658 mmHg 51%
    18:00 +19°C° 0.2 mm 3 mps 657 mmHg 63%
    19:00 +19°C° 0.1 mm 3 mps 658 mmHg 61%
    20:00 +19°C° 0.1 mm 2 mps 658 mmHg 59%
    21:00 +18°C° 0.1 mm 2 mps 659 mmHg 56%
    22:00 +18°C° 0.3 mm 2 mps 658 mmHg 57%
    23:00 +18°C° 0.3 mm 1 mps 658 mmHg 58%

    29 May, Friday

    Time Temperature Precipitation Wind Pressure Humidity
    00:00 +18°C° 0.3 mm 1 mps 657 mmHg 59%
    01:00 +18°C° 0 mm 1 mps 657 mmHg 59%
    02:00 +16°C° 0 mm 1 mps 656 mmHg 59%
    03:00 +16°C° 0 mm 1 mps 656 mmHg 59%
    04:00 +18°C° 0 mm 1 mps 656 mmHg 59%
    05:00 +19°C° 0 mm 1 mps 656 mmHg 58%
    06:00 +20°C° 0 mm 1 mps 656 mmHg 57%
    07:00 +22°C° 0 mm 1 mps 656 mmHg 51%
    08:00 +23°C° 0 mm 2 mps 656 mmHg 46%
    09:00 +25°C° 0 mm 2 mps 656 mmHg 41%
    10:00 +26°C° 0 mm 2 mps 656 mmHg 38%
    11:00 +28°C° 0 mm 3 mps 656 mmHg 36%
    12:00 +29°C° 0 mm 4 mps 656 mmHg 34%
    13:00 +29°C° 0 mm 3 mps 656 mmHg 32%
    14:00 +30°C° 0 mm 3 mps 656 mmHg 31%
    15:00 +31°C° 0 mm 3 mps 656 mmHg 30%
    16:00 +29°C° 0 mm 4 mps 656 mmHg 32%
    17:00 +28°C° 0 mm 4 mps 656 mmHg 34%
    18:00 +27°C° 0 mm 5 mps 656 mmHg 36%
    19:00 +25°C° 0 mm 4 mps 655 mmHg 35%
    20:00 +22°C° 0 mm 3 mps 655 mmHg 35%
    21:00 +20°C° 0 mm 2 mps 655 mmHg 35%
    22:00 +19°C° 0 mm 2 mps 655 mmHg 37%
    23:00 +19°C° 0 mm 1 mps 655 mmHg 38%

    30 May, Saturday

    Time Temperature Precipitation Wind Pressure Humidity
    00:00 +18°C° 0 mm 1 mps 655 mmHg 40%
    01:00 +18°C° 0 mm 1 mps 654 mmHg 40%
    02:00 +17°C° 0 mm 2 mps 654 mmHg 40%
    03:00 +16°C° 0 mm 2 mps 654 mmHg 40%
    04:00 +17°C° 0 mm 2 mps 655 mmHg 42%
    05:00 +17°C° 0 mm 2 mps 655 mmHg 44%
    06:00 +17°C° 0 mm 2 mps 655 mmHg 46%
    07:00 +18°C° 0 mm 4 mps 656 mmHg 40%
    08:00 +20°C° 0 mm 5 mps 657 mmHg 33%
    09:00 +21°C° 0 mm 6 mps 657 mmHg 27%
    10:00 +22°C° 0 mm 5 mps 658 mmHg 26%
    11:00 +22°C° 0 mm 5 mps 658 mmHg 25%
    12:00 +23°C° 0 mm 4 mps 658 mmHg 24%
    13:00 +23°C° 0 mm 4 mps 659 mmHg 24%
    14:00 +25°C° 0 mm 3 mps 659 mmHg 24%
    15:00 +25°C° 0 mm 3 mps 659 mmHg 23%
    16:00 +25°C° 0 mm 2 mps 659 mmHg 26%
    17:00 +25°C° 0 mm 2 mps 659 mmHg 30%
    18:00 +24°C° 0 mm 1 mps 659 mmHg 33%
    19:00 +21°C° 0 mm 2 mps 659 mmHg 33%
    20:00 +19°C° 0 mm 2 mps 659 mmHg 34%
    21:00 +17°C° 0 mm 2 mps 659 mmHg 34%
    22:00 +16°C° 0 mm 2 mps 659 mmHg 34%
    23:00 +16°C° 0 mm 2 mps 659 mmHg 34%

    31 May, Sunday

    Time Temperature Precipitation Wind Pressure Humidity
    00:00 +15°C° 0 mm 2 mps 659 mmHg 35%
    01:00 +15°C° 0 mm 2 mps 658 mmHg 36%
    02:00 +14°C° 0 mm 2 mps 658 mmHg 37%
    03:00 +14°C° 0 mm 2 mps 658 mmHg 38%
    04:00 +15°C° 0 mm 2 mps 659 mmHg 41%
    05:00 +16°C° 0 mm 1 mps 659 mmHg 45%
    06:00 +16°C° 0 mm 1 mps 659 mmHg 48%
    07:00 +19°C° 0 mm 1 mps 660 mmHg 43%
    08:00 +20°C° 0 mm 2 mps 660 mmHg 38%
    09:00 +23°C° 0 mm 2 mps 660 mmHg 33%
    10:00 +24°C° 0 mm 2 mps 660 mmHg 32%
    11:00 +25°C° 0 mm 2 mps 660 mmHg 30%
    12:00 +26°C° 0 mm 2 mps 660 mmHg 29%
    13:00 +27°C° 0 mm 2 mps 660 mmHg 28%
    14:00 +27°C° 0 mm 2 mps 660 mmHg 27%
    15:00 +28°C° 0 mm 2 mps 660 mmHg 26%
    16:00 +27°C° 0 mm 2 mps 659 mmHg 30%
    17:00 +27°C° 0 mm 1 mps 659 mmHg 34%
    18:00 +26°C° 0 mm 1 mps 659 mmHg 37%
    19:00 +24°C° 0 mm 1 mps 658 mmHg 39%
    20:00 +21°C° 0 mm 2 mps 658 mmHg 41%
    21:00 +19°C° 0 mm 2 mps 658 mmHg 43%
    22:00 +18°C° 0 mm 2 mps 658 mmHg 44%
    23:00 +18°C° 0 mm 2 mps 658 mmHg 46%
    Show more